Beverly, MA

2:46 PM EDT on September 21, 2017 (GMT -0400)
Beverly Municipal

Weather History for KBVY - June, 2013

Change the Weather History Date:

Sunday, June 30, 2013

  Actual Average Record
Temperature  
Mean Temperature 76 °F -  
Max Temperature 84 °F 78 °F 91 °F (1983)
Min Temperature 69 °F 59 °F 53 °F (2007)
Cooling Degree Days 12    
Growing Degree Days 26 (Base 50)    
Moisture  
Dew Point 69 °F    
Average Humidity 79    
Maximum Humidity 93    
Minimum Humidity 67    
Precipitation  
Precipitation 0.00 in - - ()
Sea Level Pressure  
Sea Level Pressure 29.82 in    
Wind  
Wind Speed 7 mph (South)    
Max Wind Speed 13 mph    
Max Gust Speed 20 mph    
Visibility 10 miles    
Events      
Averages and records for this station are not official NWS values.
T = Trace of Precipitation, MM = Missing Value Source: NWS Daily Summary

Daily Weather History Graph

Daily Weather History Graph

Search for Another Location

Airport or City:

Trip Planner

Search our weather history database for the weather conditions in past years. The results will help you decide how hot, cold, wet, or windy it might be!

Date:

Astronomy

Jun. 30, 2013 Rise Set
Actual Time 5:09 AM EDT 8:25 PM EDT
Civil Twilight 4:34 AM EDT 8:59 PM EDT
Nautical Twilight 3:49 AM EDT 9:44 PM EDT
Astronomical Twilight 2:54 AM EDT 10:39 PM EDT
Moon 12:13 AM EDT (6/30) 1:31 PM EDT (6/30)
Length of Visible Light 16h 25m
Length of Day
15h 15m
Last Quarter, 45% of the Moon is Illuminated
Jun 30
Last Quarter
Jul 8
New
Jul 15
First Quarter
Jul 22
Full
Jul 29
Last Quarter

Hourly Weather History & Observations

Time (EDT) Temp. Heat Index Dew Point Humidity Pressure Visibility Wind Dir Wind Speed Gust Speed Precip Events Conditions
12:53 AM 70.0 °F - 66.9 °F 90% 29.71 in 10.0 mi SSW 5.8 mph - N/A   Clear
1:53 AM 71.1 °F - 66.9 °F 87% 29.71 in 10.0 mi SSW 8.1 mph - N/A   Clear
2:53 AM 71.1 °F - 66.9 °F 87% 29.71 in 10.0 mi SSW 6.9 mph - N/A   Clear
3:53 AM 70.0 °F - 66.0 °F 87% 29.72 in 10.0 mi SSW 4.6 mph - N/A   Clear
4:53 AM 69.1 °F - 66.9 °F 93% 29.73 in 10.0 mi SW 4.6 mph - N/A   Partly Cloudy
5:53 AM 70.0 °F - 66.9 °F 90% 29.75 in 8.0 mi SSW 4.6 mph - N/A   Clear
6:53 AM 73.0 °F - 68.0 °F 84% 29.78 in 10.0 mi SW 5.8 mph - N/A   Clear
7:53 AM 75.0 °F - 69.1 °F 82% 29.80 in 10.0 mi SSW 8.1 mph - N/A   Clear
8:53 AM 77.0 °F - 69.1 °F 76% 29.81 in 10.0 mi SW 5.8 mph - N/A   Clear
9:53 AM 79.0 °F - 71.1 °F 77% 29.81 in 10.0 mi South 4.6 mph - N/A   Clear
10:53 AM 82.0 °F 85.9 °F 70.0 °F 67% 29.82 in 10.0 mi SW 8.1 mph - N/A   Mostly Cloudy
11:53 AM 82.0 °F 86.3 °F 71.1 °F 69% 29.82 in 10.0 mi South 9.2 mph - N/A   Mostly Cloudy
12:53 PM 84.0 °F 89.6 °F 72.0 °F 67% 29.82 in 10.0 mi South 8.1 mph - N/A   Mostly Cloudy
1:53 PM 82.9 °F 87.5 °F 71.1 °F 67% 29.81 in 10.0 mi South 10.4 mph - N/A   Clear
2:53 PM 82.0 °F 85.9 °F 70.0 °F 67% 29.82 in 10.0 mi South 12.7 mph - N/A   Overcast
3:53 PM 81.0 °F 84.4 °F 70.0 °F 69% 29.83 in 10.0 mi South 10.4 mph 19.6 mph N/A   Overcast
4:53 PM 81.0 °F 84.9 °F 71.1 °F 72% 29.83 in 10.0 mi South 12.7 mph - N/A   Mostly Cloudy
5:53 PM 80.1 °F 83.2 °F 70.0 °F 71% 29.84 in 10.0 mi South 8.1 mph - N/A   Clear
6:53 PM 79.0 °F - 70.0 °F 74% 29.86 in 10.0 mi South 10.4 mph - N/A   Clear
7:53 PM 75.9 °F - 68.0 °F 76% 29.88 in 10.0 mi South 8.1 mph - N/A   Clear
8:53 PM 73.9 °F - 66.9 °F 79% 29.89 in 10.0 mi South 5.8 mph - N/A   Clear
9:53 PM 73.0 °F - 66.9 °F 81% 29.91 in 10.0 mi South 8.1 mph - N/A   Partly Cloudy
10:23 PM 73.4 °F - 68.0 °F 83% 29.93 in 10.0 mi South 6.9 mph - N/A   Mostly Cloudy
10:53 PM 73.0 °F - 68.0 °F 84% 29.91 in 10.0 mi South 6.9 mph - N/A   Mostly Cloudy
11:05 PM 73.4 °F - 68.0 °F 83% 29.92 in 10.0 mi South 6.9 mph - N/A   Scattered Clouds
11:53 PM 73.0 °F - 68.0 °F 84% 29.91 in 10.0 mi South 8.1 mph - N/A   Overcast